Regional Weather Roundup
Issued by NWS

Home | Current Version | Previous Version | Graphics & Text | Print | Product List | Glossary On
Versions: 1 2 3 4 5 6 7 8 9 10 11 12 13 14 15 16 17 18 19 20 21 22 23 24 25 26 27 28 29 30 31 32 33 34 35 36 37 38 39 40 41 42 43 44 45 46 47 48 49 50
000
ASUS45 KPSR 220800
RWRAZ

PRELIMINARY ARIZONA REGIONAL HOURLY WEATHER ROUNDUP
NATIONAL WEATHER SERVICE PHOENIX AZ
100 AM MST SAT NOV 22 2014

NOTE: FAIR INDICATES FEW OR NO CLOUDS BELOW 12,000 FEET WITH NO
SIGNIFICANT WEATHER AND/OR OBSTRUCTIONS TO VISIBILITY.

AZZ001>003-036-220900-
NORTHWEST ARIZONA

CITY           SKY/WX    TMP DP  RH WIND       PRES   REMARKS
KINGMAN        CLEAR     42  19  39 CALM      30.08S
$$

AZZ004>008-015-016-018-220900-
NORTH CENTRAL ARIZONA

CITY           SKY/WX    TMP DP  RH WIND       PRES   REMARKS
GRAND CANYON   CLEAR     17   9  70 CALM      30.15R
PRESCOTT       CLEAR     35  20  54 S8        30.10S WCI  29
FLAGSTAFF      NOT AVBL
PAYSON         CLEAR     39  19  45 CALM      30.10S
$$

AZZ009>014-017-220900-
NORTHEAST ARIZONA

CITY           SKY/WX    TMP DP  RH WIND       PRES   REMARKS
WINSLOW        NOT AVBL
SAINT JOHNS    CLEAR     28  20  71 S5        30.10S WCI  23
SHOW LOW       CLEAR     25  14  63 CALM      30.13F
$$

AZZ023-220900-
GREATER PHOENIX AREA

CITY           SKY/WX    TMP DP  RH WIND       PRES   REMARKS
PHOENIX        CLEAR     53  29  39 E7        29.98S
BUCKEYE          N/A     45  23  42 N10       30.00S
LUKE AFB       CLEAR     46  32  57 NE6       29.99R
DEER VALLEY    CLEAR     50  25  37 E5        29.99R
SCOTTSDALE     CLEAR     49  28  44 CALM      30.00F
$$

AZZ027-028-220900-
SOUTHWEST MARICOPA COUNTY AND PINAL COUNTY

CITY           SKY/WX    TMP DP  RH WIND       PRES   REMARKS
CASA GRANDE    CLEAR     45  25  45 CALM      30.01R
$$

AZZ503-504-507>509-220900-
SOUTHEAST ARIZONA

CITY           SKY/WX    TMP DP  RH WIND       PRES   REMARKS
TUCSON         CLEAR     46  36  68 SW6       30.04R
DAVIS-MONTHAN  CLEAR     45  37  73 SW5       30.02R
NOGALES        CLEAR     41  35  79 CALM      30.03R
SIERRA VISTA   CLEAR     40  26  57 W7        30.03R
SAFFORD        CLEAR     37  20  50 CALM      30.01R
$$

AZZ020-021-025-026-031-220900-
SOUTHWEST ARIZONA

CITY           SKY/WX    TMP DP  RH WIND       PRES   REMARKS
YUMA           CLEAR     55  40  56 CALM      29.99S
$$

CAZ031-033-041-043-047-048-061-220900-
SOUTHERN CALIFORNIA

CITY           SKY/WX    TMP DP  RH WIND       PRES   REMARKS
DOWNTOWN L.A.  CLEAR     58  43  57 CALM      30.06R
L.A. AIRPORT   PTCLDY    62  46  55 VRB7      30.07R
SAN DIEGO      CLEAR     60  51  72 CALM      30.07S
BURBANK        CLEAR     54  39  57 NW3       30.06R
ONTARIO        CLEAR     55  46  71 CALM      30.07R
RIVERSIDE      CLEAR     55  48  77 NE5       30.07S
PALM SPRINGS   CLEAR     58  46  64 N5        30.04R
EL CENTRO NAS  CLEAR     54  47  77 W6        30.00S
IMPERIAL       CLEAR     55  47  74 SW6       29.99S
BLYTHE         CLEAR     57  32  38 W9        30.00S
$$

NVZ020-UTZ003-220900-
SOUTHERN NEVADA-UTAH

CITY           SKY/WX    TMP DP  RH WIND       PRES   REMARKS
LAS VEGAS      NOT AVBL
SALT LAKE CITY MOCLDY    37  24  59 SE8       29.97F WCI  31
$$

NMZ009-TXZ055-220900-
NEW MEXICO-WEST TEXAS

CITY           SKY/WX    TMP DP  RH WIND       PRES   REMARKS
ALBUQUERQUE    PTCLDY    38  18  44 N8        30.09R WCI  32
EL PASO        CLOUDY    57  24  28 N8        30.00R
$$


........................KEY........................
SKY/WX - SKY CONDITION/WEATHER
TMP    - TEMPERATURE IN FAHRENHEIT
DP     - DEW POINT IN FAHRENHEIT
RH     - RELATIVE HUMIDITY IN PERCENT
WIND   - DIRECTION AND SPEED IN MILES PER HOUR (MPH)
VRB    - VARIABLE WIND DIRECTION
PRES   - MEAN SEA LEVEL PRESSURE IN INCHES OF MERCURY
         F - FALLING PRESSURE   R - RISING PRESSURE
         S - STEADY PRESSURE
VSB    - VISIBILITY IN MILES
HX     - HEAT INDEX IN FAHRENHEIT
WCI    - WIND CHILL INDEX IN FAHRENHEIT
TC     - TEMPERATURE IN CELSIUS WHICH IS ALSO KNOWN AS
         TEMPERATURE IN CENTIGRADE
AFB    - AIR FORCE BASE
         LUKE AFB IS LUKE AIR FORCE BASE
         DAVIS-MONTHAN IS DAVIS-MONTHAN AIR FORCE BASE
NAS    - NAVAL AIR STATION
         EL CENTRO NAS IS EL CENTRO NAVAL AIR STATION
N/A    - NOT AVAILABLE


USA.gov is the U.S. government's official web portal to all federal, state and local government web resources and services.